Weather History for Bratislava Ivanka, Slovakia

Change the Weather History Date:

Wednesday, October 2, 2013

  Actual Average Record
Temperature  
Mean Temperature 48 °F -  
Max Temperature 56 °F 57 °F - ()
Min Temperature 41 °F 42 °F - ()
Degree Days  
Heating Degree Days 16    
Moisture  
Dew Point 36 °F    
Average Humidity 60    
Maximum Humidity 81    
Minimum Humidity 26    
Precipitation  
Precipitation 0.00 in - - ()
Sea Level Pressure  
Sea Level Pressure 30.15 in    
Wind  
Wind Speed 5 mph ()    
Max Wind Speed 14 mph    
Max Gust Speed -    
Visibility 10.2 miles    
Events      
T = Trace of Precipitation, MM = Missing Value Source: Averaged Metar Reports

Daily Weather History Graph

Daily Weather History Graph

Search for Another Location

Airport:

Trip Planner

Search our weather history database for the weather conditions in past years. The results will help you decide how hot, cold, wet, or windy it might be!

Date:

Astronomy

Oct. 02, 2013 Rise Set
Actual Time 6:51 AM CEST 6:28 PM CEST
Civil Twilight 6:20 AM CEST 6:59 PM CEST
Nautical Twilight 5:44 AM CEST 7:35 PM CEST
Astronomical Twilight 5:07 AM CEST 8:12 PM CEST
Moon 3:57 AM CEST (10/2) 5:02 PM CEST (10/2)
Length of Visible Light 12h 38m
Length of Day
11h 36m
Waning Crescent, 7% of the Moon is Illuminated
Oct 2
Waning Crescent
Oct 5
New
Oct 12
First Quarter
Oct 19
Full
Oct 27
Last Quarter

Hourly Weather History & Observations

Time (CEST) Temp. Windchill Dew Point Humidity Pressure Visibility Wind Dir Wind Speed Gust Speed Precip Events Conditions
12:00 AM 46 °F - 38 °F 65% 29.99 in 12 mi West 4.5 mph - -   Partly Cloudy
12:00 AM 46.4 °F 44.3 °F 39.2 °F 76% 29.98 in - West 4.6 mph - N/A   Clear
12:30 AM 46.4 °F 45.2 °F 39.2 °F 76% 29.98 in - North 3.5 mph - N/A   Clear
1:00 AM 46 °F - 38 °F 67% 29.99 in 12 mi NNE 4.5 mph - -   Mostly Cloudy
1:00 AM 46.4 °F 44.3 °F 37.4 °F 71% 29.98 in - NNE 4.6 mph - N/A   Clear
1:30 AM 46.4 °F 44.3 °F 39.2 °F 76% 29.98 in - NNE 4.6 mph - N/A   Clear
2:00 AM 45 °F - 38 °F 69% 30.01 in 12 mi 4.5 mph - -   Partly Cloudy
2:00 AM 44.6 °F 42.2 °F 39.2 °F 81% 29.98 in - NNW 4.6 mph - N/A   Clear
2:30 AM 44.6 °F 42.2 °F 39.2 °F 81% 30.01 in - NNW 4.6 mph - N/A   Clear
3:00 AM 45 °F - 39 °F 72% 30.03 in 12 mi NNE 8.9 mph - -   Partly Cloudy
3:00 AM 44.6 °F 40.2 °F 39.2 °F 81% 30.01 in - NNE 8.1 mph - N/A   Clear
3:30 AM 44.6 °F 40.2 °F 39.2 °F 81% 30.01 in - NE 8.1 mph - N/A   Clear
4:00 AM 45 °F - 39 °F 72% 30.04 in 12 mi NNW 4.5 mph - -   Mostly Cloudy
4:00 AM 44.6 °F 42.2 °F 39.2 °F 81% 30.01 in 6.2 mi North 4.6 mph - N/A   Scattered Clouds
4:30 AM 44.6 °F - 37.4 °F 76% 30.01 in 6.2 mi NW 2.3 mph - N/A   Mostly Cloudy
5:00 AM 44 °F - 38 °F 73% 30.05 in 12 mi NW 2.2 mph - -   Partly Cloudy
5:00 AM 44.6 °F - 37.4 °F 76% 30.04 in 6.2 mi NW 2.3 mph - N/A   Mostly Cloudy
5:30 AM 44.6 °F - 39.2 °F 81% 30.04 in 6.2 mi West 2.3 mph - N/A   Mostly Cloudy
6:00 AM 44.6 °F 43.1 °F 39.2 °F 81% 30.04 in 6.2 mi NNW 3.5 mph - N/A   Mostly Cloudy
6:30 AM 44.6 °F - 39.2 °F 81% 30.04 in 6.2 mi West 2.3 mph - N/A   Mostly Cloudy
7:00 AM 46 °F - 39 °F 67% 30.09 in 12 mi West 4.5 mph - -   Mostly Cloudy
7:00 AM 46.4 °F 44.3 °F 39.2 °F 76% 30.06 in 6.2 mi West 4.6 mph - N/A   Mostly Cloudy
7:30 AM 44.6 °F 42.2 °F 39.2 °F 81% 30.06 in 6.2 mi WNW 4.6 mph - N/A   Mostly Cloudy
8:00 AM 46 °F - 40 °F 72% 30.11 in 12 mi 2.2 mph - -   Mostly Cloudy
8:00 AM 46.4 °F 45.2 °F 39.2 °F 76% 30.09 in - WNW 3.5 mph - N/A   Clear
8:30 AM 46.4 °F 45.2 °F 39.2 °F 76% 30.09 in - WNW 3.5 mph - N/A   Clear
9:00 AM 47 °F - 40 °F 67% 30.13 in 12 mi WNW 4.5 mph - -   Mostly Cloudy
9:00 AM 46.4 °F 45.2 °F 39.2 °F 76% 30.09 in - WNW 3.5 mph - N/A   Clear
9:30 AM 48.2 °F - 39.2 °F 71% 30.12 in - WNW 3.5 mph - N/A   Clear
10:00 AM 47 °F - 41 °F 71% 30.15 in 12 mi NW 4.5 mph - -   Mostly Cloudy
10:00 AM 48.2 °F - 39.2 °F 71% 30.12 in 6.2 mi NW 5.8 mph - N/A   Mostly Cloudy
10:30 AM 48.2 °F - 39.2 °F 71% 30.15 in 6.2 mi WNW 4.6 mph - N/A   Mostly Cloudy
11:00 AM 48 °F - 40 °F 67% 30.18 in 12 mi WNW 4.5 mph - -   Mostly Cloudy
11:00 AM 48.2 °F - 41.0 °F 76% 30.15 in 6.2 mi WNW 5.8 mph - N/A   Mostly Cloudy
11:30 AM 50.0 °F - 39.2 °F 66% 30.15 in 6.2 mi NNW 3.5 mph - N/A   Mostly Cloudy
12:00 PM 52 °F - 38 °F 47% 30.18 in 16 mi 4.5 mph - -   Mostly Cloudy
12:00 PM 51.8 °F - 37.4 °F 58% 30.15 in - NNE 4.6 mph - N/A   Clear
12:30 PM 51.8 °F - 35.6 °F 54% 30.15 in - North 4.6 mph - N/A   Clear
1:00 PM 53 °F - 35 °F 39% 30.18 in 16 mi 2.2 mph - -   Scattered Clouds
1:00 PM 53.6 °F - 35.6 °F 51% 30.15 in 6.2 mi NNE 3.5 mph - N/A   Mostly Cloudy
1:30 PM 53.6 °F - 33.8 °F 47% 30.18 in 6.2 mi Variable 2.3 mph - N/A   Mostly Cloudy
2:00 PM 55 °F - 34 °F 33% 30.19 in 16 mi 2.2 mph - -   Partly Cloudy
2:00 PM 55.4 °F - 35.6 °F 47% 30.18 in 6.2 mi NE 3.5 mph - N/A   Mostly Cloudy
2:30 PM 55.4 °F - 35.6 °F 47% 30.18 in 6.2 mi West 3.5 mph - N/A   Mostly Cloudy
3:00 PM 55 °F - 34 °F 33% 30.19 in 16 mi 4.5 mph - -   Mostly Cloudy
3:00 PM 55.4 °F - 33.8 °F 44% 30.18 in 6.2 mi West 3.5 mph - N/A   Mostly Cloudy
3:30 PM 55.4 °F - 33.8 °F 44% 30.18 in 6.2 mi Calm Calm - N/A   Mostly Cloudy
4:00 PM 55 °F - 30 °F 26% 30.20 in 16 mi NNE 4.5 mph - -   Scattered Clouds
4:00 PM 55.4 °F - 33.8 °F 44% 30.18 in 6.2 mi NNE 4.6 mph - N/A   Mostly Cloudy
4:30 PM 53.6 °F - 32.0 °F 44% 30.18 in - NNE 6.9 mph - N/A   Clear
5:00 PM 54 °F - 33 °F 32% 30.21 in 16 mi NNE 8.9 mph - -   Scattered Clouds
5:00 PM 53.6 °F - 33.8 °F 47% 30.18 in - NE 8.1 mph - N/A   Clear
5:30 PM 53.6 °F - 32.0 °F 44% 30.21 in - NE 13.8 mph - N/A   Clear
6:00 PM 52 °F - 30 °F 30% 30.23 in 16 mi NE 13.4 mph - -   Scattered Clouds
6:00 PM 51.8 °F - 30.2 °F 44% 30.21 in - NE 11.5 mph - N/A   Clear
6:30 PM 51.8 °F - 32.0 °F 47% 30.24 in - ENE 9.2 mph - N/A   Clear
7:00 PM 50 °F - 30 °F 33% 30.26 in 16 mi NE 13.4 mph - -   Scattered Clouds
7:00 PM 50.0 °F - 28.4 °F 43% 30.24 in - NE 13.8 mph - N/A   Clear
7:30 PM 50.0 °F - 28.4 °F 43% 30.24 in - NE 12.7 mph - N/A   Clear
8:00 PM 47 °F - 30 °F 40% 30.29 in 16 mi NE 8.9 mph - -   Mostly Cloudy
8:00 PM 46.4 °F 41.5 °F 30.2 °F 53% 30.27 in - NE 10.4 mph - N/A   Clear
8:30 PM 46.4 °F 41.9 °F 30.2 °F 53% 30.27 in - NE 9.2 mph - N/A   Clear
9:00 PM 45 °F - 30 °F 44% 30.32 in 12 mi NE 8.9 mph - -   Partly Cloudy
9:00 PM 44.6 °F 39.7 °F 30.2 °F 57% 30.30 in - NE 9.2 mph - N/A   Clear
9:30 PM 42.8 °F 38.0 °F 30.2 °F 61% 30.30 in - NE 8.1 mph - N/A   Clear
10:00 PM 42 °F - 31 °F 53% 30.34 in 12 mi NE 8.9 mph - -   Scattered Clouds
10:00 PM 42.8 °F 38.0 °F 30.2 °F 61% 30.30 in - NE 8.1 mph - N/A   Clear
10:30 PM 41.0 °F 35.8 °F 30.2 °F 65% 30.33 in - NE 8.1 mph - N/A   Clear
11:00 PM 41 °F - 31 °F 56% 30.36 in 12 mi NE 8.9 mph - -   Scattered Clouds
11:00 PM 41.0 °F 35.2 °F 30.2 °F 65% 30.33 in - NE 9.2 mph - N/A   Clear
11:30 PM 41.0 °F 35.2 °F 30.2 °F 65% 30.33 in - NE 9.2 mph - N/A   Clear